Вернуться в каталог

CZ-3 R/B

АктивенHEO
NORAD 29517·ROCKET BODY·🇨🇳 China

Запущен Oct 28, 2006 с Xichang Satellite Launch Center

Loading…

Ближайшие Пролёты (ближайшие 24 часа)

TLE

СвежийSource: Space-Track

Эпоха: Sep 14, 2026, 05:11 UTC

1 29517U 06048B   26257.21635861  .00000037  00000-0  26744-4 0  9993
2 29517  28.2348 313.5420 4034213 167.9798 205.6956  6.89904307399993

Отслеживайте CZ-3 R/B в реальном времени с AllMySat

Download on the App Store